Location: Friedrichshafen
(47.6598°N, 9.4819°E)
Time: 14:36:36
(UTC+02:00)

ISS - Visible Passes

Search period start: 24 July 2017 00:00
Search period end: 03 August 2017 00:00
Orbit: 400 x 408 km, 51.6° (Epoch: 24 July)

Date Brightness Start Highest point End Pass type
(mag) Time Alt. Az. Time Alt. Az. Time Alt. Az.
24 Jul -2.5 00:59:51 10° W 01:02:58 41° N 01:06:05 10° ENE visible
24 Jul -2.9 02:36:37 10° WNW 02:39:49 50° NNE 02:43:00 10° E visible
24 Jul -3.6 04:13:09 10° WNW 04:16:18 45° SSW 04:19:26 10° SE visible
24 Jul -3.7 22:30:53 10° SW 22:34:02 49° SSE 22:37:13 10° ENE visible
25 Jul -2.9 00:07:23 10° W 00:10:34 48° NNW 00:13:44 10° ENE visible
25 Jul -2.6 01:44:17 10° WNW 01:47:24 42° N 01:50:33 10° E visible
25 Jul -4.0 03:20:48 10° WNW 03:24:04 73° SSW 03:27:18 10° ESE visible
25 Jul -2.0 04:58:19 10° WSW 05:00:03 14° SW 05:01:47 10° SSW visible
25 Jul -3.0 21:38:57 10° SSW 21:41:50 30° SE 21:44:44 10° E visible
25 Jul -3.4 23:14:56 10° W 23:18:10 62° NNW 23:21:25 10° ENE visible
26 Jul -2.4 00:51:53 10° WNW 00:54:58 39° N 00:56:44 21° ENE visible
26 Jul -1.5 02:28:28 10° WNW 02:29:16 16° WNW 02:29:16 16° WNW visible
26 Jul -3.9 22:22:33 10° WSW 22:25:49 89° NNW 22:29:04 10° ENE visible
26 Jul -2.5 23:59:25 10° WNW 00:02:32 40° N 00:05:20 12° ENE visible
27 Jul -2.1 01:36:08 10° WNW 01:37:56 28° NW 01:37:56 28° NW visible
27 Jul -2.7 23:06:55 10° W 23:10:04 45° N 23:13:14 10° ENE visible
28 Jul -2.7 00:43:47 10° WNW 00:46:56 44° N 00:46:57 44° N visible
28 Jul -3.1 22:14:25 10° W 22:17:38 56° NNW 22:20:51 10° ENE visible
28 Jul -2.5 23:51:22 10° WNW 23:54:28 39° N 23:56:05 22° ENE visible
29 Jul -1.3 01:27:55 10° WNW 01:28:42 16° WNW 01:28:42 16° WNW visible
29 Jul -2.5 22:58:52 10° WNW 23:01:58 39° N 23:05:04 10° ENE visible
30 Jul -2.6 00:35:33 10° WNW 00:37:53 41° NW 00:37:53 41° NW visible
30 Jul -2.6 22:06:21 10° W 22:09:29 42° N 22:12:36 10° ENE visible
30 Jul -2.9 23:43:09 10° WNW 23:46:19 47° NNE 23:47:07 37° NE visible
31 Jul -0.8 01:19:40 10° WNW 01:19:44 10° WNW 01:19:44 10° WNW visible
31 Jul -2.6 22:50:42 10° WNW 22:53:49 40° N 22:56:21 14° ENE visible
01 Aug -2.1 00:27:14 10° WNW 00:28:58 29° WNW 00:28:58 29° WNW visible
01 Aug -2.5 21:58:12 10° WNW 22:01:18 39° N 22:04:23 10° ENE visible
01 Aug -3.7 23:34:50 10° WNW 23:38:05 67° NNE 23:38:14 66° NE visible
02 Aug -3.1 22:42:25 10° WNW 22:45:36 50° NNE 22:47:30 21° E visible
